Time,TemperatureF,DewpointF,PressureIn,WindDirection,WindDirectionDegrees,WindSpeedMPH,WindSpeedGustMPH,Humidity,HourlyPrecipIn,Conditions,Clouds,dailyrainin,SolarRadiationWatts/m^2,SoftwareType,DateUTC
2013-03-28 00:00:00,42.6,34.2,30.25,East,80,0.0,0.0,72,0.00,,,0.00,0,Wunderground v.1.15,2013-03-28 04:00:00,
2013-03-28 00:02:00,42.5,34.1,30.25,East,80,0.0,0.0,72,0.00,,,0.00,0,Wunderground v.1.15,2013-03-28 04:02:00,
2013-03-28 00:03:00,42.5,34.1,30.25,East,80,0.0,0.0,72,0.00,,,0.00,0,Wunderground v.1.15,2013-03-28 04:03:00,
2013-03-28 00:08:00,42.2,34.2,30.25,East,80,0.0,0.0,73,0.00,,,0.00,0,Wunderground v.1.15,2013-03-28 04:08:00,
2013-03-28 00:13:00,42.1,34.4,30.25,East,80,0.0,0.0,74,0.00,,,0.00,0,Wunderground v.1.15,2013-03-28 04:13:00,
2013-03-28 00:19:00,42.1,34.7,30.25,East,80,0.0,0.0,75,0.00,,,0.00,0,Wunderground v.1.15,2013-03-28 04:19:00,
2013-03-28 00:25:00,42.2,34.8,30.25,East,80,0.0,0.0,75,0.00,,,0.00,0,Wunderground v.1.15,2013-03-28 04:25:00,
2013-03-28 00:31:00,42.2,35.2,30.25,East,80,0.0,0.0,76,0.00,,,0.00,0,Wunderground v.1.15,2013-03-28 04:31:00,
2013-03-28 00:37:00,42.2,35.5,30.24,East,80,0.0,0.0,77,0.00,,,0.00,0,Wunderground v.1.15,2013-03-28 04:37:00,
2013-03-28 00:43:00,42.6,35.6,30.24,East,80,0.0,0.0,76,0.00,,,0.00,0,Wunderground v.1.15,2013-03-28 04:43:00,
2013-03-28 00:49:00,42.5,35.1,30.24,East,80,0.0,0.0,75,0.00,,,0.00,0,Wunderground v.1.15,2013-03-28 04:49:00,
2013-03-28 00:54:00,42.4,35.0,30.24,East,80,0.0,0.0,75,0.00,,,0.00,0,Wunderground v.1.15,2013-03-28 04:54:00,
2013-03-28 01:02:00,42.1,35.1,30.24,East,80,0.0,0.0,76,0.00,,,0.00,0,Wunderground v.1.15,2013-03-28 05:02:00,
2013-03-28 01:08:00,42.1,35.1,30.24,East,80,0.0,0.0,76,0.00,,,0.00,0,Wunderground v.1.15,2013-03-28 05:08:00,
2013-03-28 01:13:00,42.2,35.5,30.24,East,80,0.0,0.0,77,0.00,,,0.00,0,Wunderground v.1.15,2013-03-28 05:13:00,
2013-03-28 01:19:00,42.2,35.2,30.24,East,80,0.0,0.0,76,0.00,,,0.00,0,Wunderground v.1.15,2013-03-28 05:19:00,
2013-03-28 01:25:00,42.3,35.3,30.24,East,80,0.0,0.0,76,0.00,,,0.00,0,Wunderground v.1.15,2013-03-28 05:25:00,
2013-03-28 01:30:00,42.2,34.8,30.24,East,80,0.0,0.0,75,0.00,,,0.00,0,Wunderground v.1.15,2013-03-28 05:30:00,
2013-03-28 01:37:00,41.9,34.9,30.24,East,80,0.0,0.0,76,0.00,,,0.00,0,Wunderground v.1.15,2013-03-28 05:37:00,
2013-03-28 01:42:00,41.6,34.6,30.24,East,80,0.0,0.0,76,0.00,,,0.00,0,Wunderground v.1.15,2013-03-28 05:42:00,
2013-03-28 01:48:00,41.2,34.5,30.24,East,80,0.0,0.0,77,0.00,,,0.00,0,Wunderground v.1.15,2013-03-28 05:48:00,
2013-03-28 01:54:00,40.9,35.2,30.24,East,80,0.0,0.0,80,0.00,,,0.00,0,Wunderground v.1.15,2013-03-28 05:54:00,
2013-03-28 01:59:00,41.0,35.3,30.24,East,80,0.0,0.0,80,0.00,,,0.00,0,Wunderground v.1.15,2013-03-28 05:59:00,
2013-03-28 02:04:00,40.9,35.5,30.24,East,80,0.0,0.0,81,0.00,,,0.00,0,Wunderground v.1.15,2013-03-28 06:04:00,
2013-03-28 02:09:00,41.4,36.0,30.24,East,80,1.0,2.0,81,0.00,,,0.00,0,Wunderground v.1.15,2013-03-28 06:09:00,
2013-03-28 02:14:00,41.9,35.9,30.25,East,80,0.0,2.0,79,0.00,,,0.00,0,Wunderground v.1.15,2013-03-28 06:14:00,
2013-03-28 02:19:00,42.5,35.8,30.25,East,80,0.0,2.0,77,0.00,,,0.00,0,Wunderground v.1.15,2013-03-28 06:19:00,
2013-03-28 02:24:00,42.5,35.8,30.24,East,80,0.0,1.0,77,0.00,,,0.00,0,Wunderground v.1.15,2013-03-28 06:24:00,
2013-03-28 02:29:00,43.6,36.2,30.24,East,80,0.0,1.0,75,0.00,,,0.00,0,Wunderground v.1.15,2013-03-28 06:29:00,
2013-03-28 02:34:00,43.6,35.9,30.25,East,80,0.0,0.0,74,0.00,,,0.00,0,Wunderground v.1.15,2013-03-28 06:34:00,
2013-03-28 02:39:00,43.7,35.3,30.25,East,80,0.0,2.0,72,0.00,,,0.00,0,Wunderground v.1.15,2013-03-28 06:39:00,
2013-03-28 02:44:00,43.9,35.1,30.24,SSE,165,1.0,2.0,71,0.00,,,0.00,0,Wunderground v.1.15,2013-03-28 06:44:00,
2013-03-28 02:49:00,44.0,34.8,30.25,SSE,165,2.0,2.0,70,0.00,,,0.00,0,Wunderground v.1.15,2013-03-28 06:49:00,
2013-03-28 02:54:00,43.9,34.4,30.25,SE,130,1.0,2.0,69,0.00,,,0.00,0,Wunderground v.1.15,2013-03-28 06:54:00,
2013-03-28 02:59:00,43.7,34.2,30.25,ESE,116,1.0,3.0,69,0.00,,,0.00,0,Wunderground v.1.15,2013-03-28 06:59:00,
2013-03-28 03:04:00,43.5,33.6,30.24,South,169,1.0,3.0,68,0.00,,,0.00,0,Wunderground v.1.15,2013-03-28 07:04:00,
2013-03-28 03:09:00,43.4,33.5,30.25,SSE,161,1.0,3.0,68,0.00,,,0.00,0,Wunderground v.1.15,2013-03-28 07:09:00,
2013-03-28 03:14:00,42.9,33.1,30.24,South,169,1.0,2.0,68,0.00,,,0.00,0,Wunderground v.1.15,2013-03-28 07:14:00,
2013-03-28 03:19:00,42.7,32.5,30.25,SSE,168,1.0,4.0,67,0.00,,,0.00,0,Wunderground v.1.15,2013-03-28 07:19:00,
2013-03-28 03:24:00,42.5,31.9,30.25,South,174,0.0,2.0,66,0.00,,,0.00,0,Wunderground v.1.15,2013-03-28 07:24:00,
2013-03-28 03:29:00,42.4,31.5,30.24,SSE,162,2.0,5.0,65,0.00,,,0.00,0,Wunderground v.1.15,2013-03-28 07:29:00,
2013-03-28 03:35:00,42.4,31.5,30.24,SSE,159,2.0,2.0,65,0.00,,,0.00,0,Wunderground v.1.15,2013-03-28 07:35:00,
2013-03-28 03:40:00,42.3,31.7,30.25,South,173,0.0,1.0,66,0.00,,,0.00,0,Wunderground v.1.15,2013-03-28 07:40:00,
2013-03-28 03:45:00,42.3,31.4,30.25,SSE,148,1.0,6.0,65,0.00,,,0.00,0,Wunderground v.1.15,2013-03-28 07:45:00,
2013-03-28 03:50:00,42.3,31.4,30.25,SE,136,2.0,2.0,65,0.00,,,0.00,0,Wunderground v.1.15,2013-03-28 07:50:00,
2013-03-28 03:55:00,42.3,30.6,30.25,SE,124,2.0,7.0,63,0.00,,,0.00,0,Wunderground v.1.15,2013-03-28 07:55:00,
2013-03-28 04:00:00,42.4,30.3,30.25,SE,142,2.0,2.0,62,0.00,,,0.00,0,Wunderground v.1.15,2013-03-28 08:00:00,
2013-03-28 04:05:00,42.4,29.9,30.25,SSE,163,2.0,4.0,61,0.00,,,0.00,0,Wunderground v.1.15,2013-03-28 08:05:00,
2013-03-28 04:10:00,42.3,29.4,30.25,South,180,3.0,3.0,60,0.00,,,0.00,0,Wunderground v.1.15,2013-03-28 08:10:00,
2013-03-28 04:15:00,42.2,28.9,30.25,SSE,164,3.0,6.0,59,0.00,,,0.00,0,Wunderground v.1.15,2013-03-28 08:15:00,
2013-03-28 04:20:00,42.2,28.9,30.25,South,179,5.0,5.0,59,0.00,,,0.00,0,Wunderground v.1.15,2013-03-28 08:20:00,
2013-03-28 04:25:00,42.1,28.8,30.25,South,171,5.0,8.0,59,0.00,,,0.00,0,Wunderground v.1.15,2013-03-28 08:25:00,
2013-03-28 04:30:00,42.1,28.8,30.25,SSE,159,4.0,4.0,59,0.00,,,0.00,0,Wunderground v.1.15,2013-03-28 08:30:00,
2013-03-28 04:35:00,42.0,28.7,30.26,SSE,165,2.0,6.0,59,0.00,,,0.00,0,Wunderground v.1.15,2013-03-28 08:35:00,
2013-03-28 04:40:00,41.9,29.0,30.26,SSE,150,1.0,2.0,60,0.00,,,0.00,0,Wunderground v.1.15,2013-03-28 08:40:00,
2013-03-28 04:45:00,41.7,28.8,30.26,SSE,167,4.0,5.0,60,0.00,,,0.00,0,Wunderground v.1.15,2013-03-28 08:45:00,
2013-03-28 04:50:00,41.6,29.1,30.26,SE,134,3.0,4.0,61,0.00,,,0.00,0,Wunderground v.1.15,2013-03-28 08:50:00,
2013-03-28 04:55:00,41.5,29.0,30.26,South,169,4.0,5.0,61,0.00,,,0.00,0,Wunderground v.1.15,2013-03-28 08:55:00,
2013-03-28 05:02:00,41.5,28.6,30.26,SSE,165,1.0,3.0,60,0.00,,,0.00,0,Wunderground v.1.15,2013-03-28 09:02:00,
2013-03-28 05:07:00,41.5,28.6,30.26,SSE,150,1.0,5.0,60,0.00,,,0.00,0,Wunderground v.1.15,2013-03-28 09:07:00,
2013-03-28 05:12:00,41.5,28.2,30.26,SSE,152,2.0,5.0,59,0.00,,,0.00,0,Wunderground v.1.15,2013-03-28 09:12:00,
2013-03-28 05:17:00,41.4,28.1,30.26,SE,134,2.0,5.0,59,0.00,,,0.00,0,Wunderground v.1.15,2013-03-28 09:17:00,
2013-03-28 05:22:00,41.3,28.4,30.26,East,89,2.0,8.0,60,0.00,,,0.00,0,Wunderground v.1.15,2013-03-28 09:22:00,
2013-03-28 05:27:00,41.2,27.9,30.26,SSE,157,2.0,8.0,59,0.00,,,0.00,0,Wunderground v.1.15,2013-03-28 09:27:00,
2013-03-28 05:32:00,41.2,27.9,30.27,SSE,165,2.0,5.0,59,0.00,,,0.00,0,Wunderground v.1.15,2013-03-28 09:32:00,
2013-03-28 05:37:00,41.1,28.3,30.27,SSE,154,1.0,6.0,60,0.00,,,0.00,0,Wunderground v.1.15,2013-03-28 09:37:00,
2013-03-28 05:42:00,41.0,28.2,30.27,SSE,164,1.0,4.0,60,0.00,,,0.00,0,Wunderground v.1.15,2013-03-28 09:42:00,
2013-03-28 05:47:00,40.9,28.1,30.27,SE,132,6.0,7.0,60,0.00,,,0.00,0,Wunderground v.1.15,2013-03-28 09:47:00,
2013-03-28 05:52:00,40.7,28.3,30.27,SSE,157,4.0,7.0,61,0.00,,,0.00,0,Wunderground v.1.15,2013-03-28 09:52:00,
2013-03-28 05:57:00,40.6,28.2,30.27,ESE,121,2.0,7.0,61,0.00,,,0.00,0,Wunderground v.1.15,2013-03-28 09:57:00,
2013-03-28 06:02:00,40.4,28.0,30.27,SSE,168,1.0,3.0,61,0.00,,,0.00,0,Wunderground v.1.15,2013-03-28 10:02:00,
2013-03-28 06:07:00,40.2,27.8,30.27,SSE,148,3.0,5.0,61,0.00,,,0.00,0,Wunderground v.1.15,2013-03-28 10:07:00,
2013-03-28 06:12:00,40.0,27.6,30.27,SSE,163,4.0,5.0,61,0.00,,,0.00,0,Wunderground v.1.15,2013-03-28 10:12:00,
2013-03-28 06:17:00,39.9,27.9,30.27,South,175,2.0,6.0,62,0.00,,,0.00,0,Wunderground v.1.15,2013-03-28 10:17:00,
2013-03-28 06:22:00,39.8,27.8,30.27,SE,146,2.0,5.0,62,0.00,,,0.00,0,Wunderground v.1.15,2013-03-28 10:22:00,
2013-03-28 06:27:00,39.7,27.7,30.28,SSE,162,2.0,5.0,62,0.00,,,0.00,0,Wunderground v.1.15,2013-03-28 10:27:00,
2013-03-28 06:32:00,39.6,27.6,30.28,SSE,162,4.0,5.0,62,0.00,,,0.00,0,Wunderground v.1.15,2013-03-28 10:32:00,
2013-03-28 06:38:00,39.5,27.5,30.28,SSE,168,4.0,6.0,62,0.00,,,0.00,0,Wunderground v.1.15,2013-03-28 10:38:00,
2013-03-28 06:43:00,39.5,27.5,30.28,SSE,161,2.0,3.0,62,0.00,,,0.00,0,Wunderground v.1.15,2013-03-28 10:43:00,
2013-03-28 06:48:00,39.4,27.5,30.28,SE,135,2.0,5.0,62,0.00,,,0.00,0,Wunderground v.1.15,2013-03-28 10:48:00,
2013-03-28 06:53:00,39.3,27.4,30.28,South,169,3.0,4.0,62,0.00,,,0.00,0,Wunderground v.1.15,2013-03-28 10:53:00,
2013-03-28 06:58:00,39.4,27.5,30.28,SSE,155,1.0,4.0,62,0.00,,,0.00,0,Wunderground v.1.15,2013-03-28 10:58:00,
2013-03-28 07:03:00,39.4,27.5,30.28,SSE,148,2.0,4.0,62,0.00,,,0.00,0,Wunderground v.1.15,2013-03-28 11:03:00,
2013-03-28 07:08:00,39.6,27.6,30.28,SE,142,2.0,4.0,62,0.00,,,0.00,0,Wunderground v.1.15,2013-03-28 11:08:00,
2013-03-28 07:13:00,39.7,27.7,30.28,SSE,162,2.0,7.0,62,0.00,,,0.00,5,Wunderground v.1.15,2013-03-28 11:13:00,
2013-03-28 07:18:00,39.9,27.9,30.28,SSE,165,3.0,7.0,62,0.00,,,0.00,7,Wunderground v.1.15,2013-03-28 11:18:00,
2013-03-28 07:23:00,39.9,27.9,30.29,SSE,157,1.0,4.0,62,0.00,,,0.00,11,Wunderground v.1.15,2013-03-28 11:23:00,
2013-03-28 07:28:00,39.9,27.9,30.29,ESE,113,2.0,4.0,62,0.00,,,0.00,14,Wunderground v.1.15,2013-03-28 11:28:00,
2013-03-28 07:34:00,39.8,27.8,30.29,SE,126,2.0,4.0,62,0.00,,,0.00,18,Wunderground v.1.15,2013-03-28 11:34:00,
2013-03-28 07:39:00,39.7,27.7,30.29,SE,145,1.0,5.0,62,0.00,,,0.00,21,Wunderground v.1.15,2013-03-28 11:39:00,
2013-03-28 07:44:00,39.6,27.6,30.29,SSE,155,1.0,3.0,62,0.00,,,0.00,25,Wunderground v.1.15,2013-03-28 11:44:00,
2013-03-28 07:49:00,39.6,27.6,30.29,SE,127,2.0,4.0,62,0.00,,,0.00,26,Wunderground v.1.15,2013-03-28 11:49:00,
2013-03-28 07:54:00,39.7,27.7,30.30,SSE,148,3.0,4.0,62,0.00,,,0.00,30,Wunderground v.1.15,2013-03-28 11:54:00,
2013-03-28 07:59:00,39.9,27.5,30.30,SE,138,3.0,5.0,61,0.00,,,0.00,32,Wunderground v.1.15,2013-03-28 11:59:00,
2013-03-28 08:04:00,40.2,27.4,30.30,ESE,120,4.0,4.0,60,0.00,,,0.00,33,Wunderground v.1.15,2013-03-28 12:04:00,
2013-03-28 08:09:00,40.4,27.6,30.30,ESE,113,2.0,5.0,60,0.00,,,0.00,37,Wunderground v.1.15,2013-03-28 12:09:00,
2013-03-28 08:14:00,40.6,27.4,30.30,ESE,111,3.0,7.0,59,0.00,,,0.00,39,Wunderground v.1.15,2013-03-28 12:14:00,
2013-03-28 08:19:00,40.8,27.6,30.30,SE,132,1.0,7.0,59,0.00,,,0.00,42,Wunderground v.1.15,2013-03-28 12:19:00,
2013-03-28 08:24:00,41.1,27.4,30.30,SE,126,4.0,5.0,58,0.00,,,0.00,51,Wunderground v.1.15,2013-03-28 12:24:00,
2013-03-28 08:29:00,41.4,27.3,30.31,SE,127,3.0,10.0,57,0.00,,,0.00,70,Wunderground v.1.15,2013-03-28 12:29:00,
2013-03-28 08:34:00,41.8,27.2,30.31,SE,131,1.0,5.0,56,0.00,,,0.00,74,Wunderground v.1.15,2013-03-28 12:34:00,
2013-03-28 08:39:00,42.2,27.6,30.31,SE,140,2.0,5.0,56,0.00,,,0.00,51,Wunderground v.1.15,2013-03-28 12:39:00,
2013-03-28 08:44:00,42.6,27.5,30.31,SE,125,3.0,5.0,55,0.00,,,0.00,60,Wunderground v.1.15,2013-03-28 12:44:00,
2013-03-28 08:49:00,43.1,27.6,30.31,SSW,202,6.0,7.0,54,0.00,,,0.00,60,Wunderground v.1.15,2013-03-28 12:49:00,
2013-03-28 08:54:00,43.4,27.4,30.31,SSE,164,3.0,6.0,53,0.00,,,0.00,54,Wunderground v.1.15,2013-03-28 12:54:00,
2013-03-28 08:59:00,43.8,27.3,30.31,ESE,109,1.0,8.0,52,0.00,,,0.00,58,Wunderground v.1.15,2013-03-28 12:59:00,
2013-03-28 09:04:00,44.3,27.8,30.31,SE,124,3.0,5.0,52,0.00,,,0.00,63,Wunderground v.1.15,2013-03-28 13:04:00,
2013-03-28 09:09:00,44.7,27.7,30.31,ESE,105,2.0,7.0,51,0.00,,,0.00,72,Wunderground v.1.15,2013-03-28 13:09:00,
2013-03-28 09:14:00,45.0,27.5,30.31,SSE,166,5.0,7.0,50,0.00,,,0.00,70,Wunderground v.1.15,2013-03-28 13:14:00,
2013-03-28 09:19:00,45.2,27.6,30.31,South,178,4.0,7.0,50,0.00,,,0.00,67,Wunderground v.1.15,2013-03-28 13:19:00,
2013-03-28 09:24:00,45.5,27.9,30.31,SSE,155,4.0,7.0,50,0.00,,,0.00,74,Wunderground v.1.15,2013-03-28 13:24:00,
2013-03-28 09:29:00,45.8,27.7,30.31,SE,126,5.0,9.0,49,0.00,,,0.00,72,Wunderground v.1.15,2013-03-28 13:29:00,
2013-03-28 09:34:00,46.0,27.4,30.31,South,171,8.0,8.0,48,0.00,,,0.00,95,Wunderground v.1.15,2013-03-28 13:34:00,
2013-03-28 09:39:00,46.3,28.2,30.31,SSE,158,5.0,8.0,49,0.00,,,0.00,179,Wunderground v.1.15,2013-03-28 13:39:00,
2013-03-28 09:44:00,46.7,28.0,30.31,ESE,102,3.0,8.0,48,0.00,,,0.00,399,Wunderground v.1.15,2013-03-28 13:44:00,
2013-03-28 09:49:00,46.9,28.2,30.31,SE,126,2.0,8.0,48,0.00,,,0.00,229,Wunderground v.1.15,2013-03-28 13:49:00,
2013-03-28 09:54:00,47.2,28.0,30.32,SSE,148,3.0,6.0,47,0.00,,,0.00,366,Wunderground v.1.15,2013-03-28 13:54:00,
2013-03-28 09:59:00,47.6,28.9,30.31,SE,138,2.0,6.0,48,0.00,,,0.00,436,Wunderground v.1.15,2013-03-28 13:59:00,
2013-03-28 10:04:00,47.7,27.9,30.31,South,188,6.0,11.0,46,0.00,,,0.00,545,Wunderground v.1.15,2013-03-28 14:04:00,
2013-03-28 10:09:00,48.0,28.7,30.31,East,90,5.0,11.0,47,0.00,,,0.00,561,Wunderground v.1.15,2013-03-28 14:09:00,
2013-03-28 10:15:00,48.4,28.5,30.31,ESE,118,2.0,8.0,46,0.00,,,0.00,577,Wunderground v.1.15,2013-03-28 14:15:00,
2013-03-28 10:20:00,48.9,29.0,30.32,SE,145,2.0,4.0,46,0.00,,,0.00,594,Wunderground v.1.15,2013-03-28 14:20:00,
2013-03-28 10:25:00,49.2,28.2,30.32,SE,129,2.0,7.0,44,0.00,,,0.00,612,Wunderground v.1.15,2013-03-28 14:25:00,
2013-03-28 10:30:00,49.4,27.2,30.31,SE,127,3.0,7.0,42,0.00,,,0.00,628,Wunderground v.1.15,2013-03-28 14:30:00,
2013-03-28 10:36:00,49.4,27.2,30.32,ESE,109,2.0,8.0,42,0.00,,,0.00,643,Wunderground v.1.15,2013-03-28 14:36:00,
2013-03-28 10:41:00,49.7,27.5,30.32,East,82,3.0,3.0,42,0.00,,,0.00,657,Wunderground v.1.15,2013-03-28 14:41:00,
2013-03-28 10:46:00,50.2,27.4,30.32,SE,128,4.0,6.0,41,0.00,,,0.00,671,Wunderground v.1.15,2013-03-28 14:46:00,
2013-03-28 10:51:00,50.4,27.6,30.32,SE,141,2.0,6.0,41,0.00,,,0.00,687,Wunderground v.1.15,2013-03-28 14:51:00,
2013-03-28 10:56:00,50.6,27.7,30.31,East,87,3.0,6.0,41,0.00,,,0.00,700,Wunderground v.1.15,2013-03-28 14:56:00,
2013-03-28 11:02:00,51.0,27.5,30.31,South,171,3.0,4.0,40,0.00,,,0.00,719,Wunderground v.1.15,2013-03-28 15:02:00,
2013-03-28 11:07:00,51.2,27.7,30.31,East,91,2.0,7.0,40,0.00,,,0.00,728,Wunderground v.1.15,2013-03-28 15:07:00,
2013-03-28 11:12:00,51.5,27.9,30.31,South,174,2.0,7.0,40,0.00,,,0.00,744,Wunderground v.1.15,2013-03-28 15:12:00,
2013-03-28 11:17:00,51.8,27.6,30.31,NE,39,3.0,7.0,39,0.00,,,0.00,758,Wunderground v.1.15,2013-03-28 15:17:00,
2013-03-28 11:22:00,52.1,27.2,30.31,SSE,157,5.0,9.0,38,0.00,,,0.00,772,Wunderground v.1.15,2013-03-28 15:22:00,
2013-03-28 11:28:00,52.0,26.5,30.31,SSE,168,2.0,9.0,37,0.00,,,0.00,782,Wunderground v.1.15,2013-03-28 15:28:00,
2013-03-28 11:33:00,52.1,26.6,30.31,ESE,111,2.0,5.0,37,0.00,,,0.00,795,Wunderground v.1.15,2013-03-28 15:33:00,
2013-03-28 11:38:00,52.3,26.8,30.31,East,101,1.0,5.0,37,0.00,,,0.00,807,Wunderground v.1.15,2013-03-28 15:38:00,
2013-03-28 11:43:00,52.4,27.5,30.31,SE,132,2.0,6.0,38,0.00,,,0.00,819,Wunderground v.1.15,2013-03-28 15:43:00,
2013-03-28 11:48:00,53.1,28.1,30.31,SSE,148,3.0,6.0,38,0.00,,,0.00,823,Wunderground v.1.15,2013-03-28 15:48:00,
2013-03-28 11:53:00,53.4,27.8,30.31,East,97,6.0,6.0,37,0.00,,,0.00,837,Wunderground v.1.15,2013-03-28 15:53:00,
2013-03-28 11:58:00,53.6,27.3,30.30,ESE,116,2.0,6.0,36,0.00,,,0.00,846,Wunderground v.1.15,2013-03-28 15:58:00,
2013-03-28 12:03:00,53.7,28.0,30.30,SE,127,3.0,3.0,37,0.00,,,0.00,847,Wunderground v.1.15,2013-03-28 16:03:00,
2013-03-28 12:08:00,54.1,27.7,30.30,East,87,3.0,8.0,36,0.00,,,0.00,858,Wunderground v.1.15,2013-03-28 16:08:00,
2013-03-28 12:13:00,54.0,27.6,30.30,ESE,121,1.0,7.0,36,0.00,,,0.00,867,Wunderground v.1.15,2013-03-28 16:13:00,
2013-03-28 12:18:00,54.5,27.4,30.30,ESE,120,3.0,7.0,35,0.00,,,0.00,870,Wunderground v.1.15,2013-03-28 16:18:00,
2013-03-28 12:23:00,54.3,26.5,30.30,ENE,65,3.0,7.0,34,0.00,,,0.00,882,Wunderground v.1.15,2013-03-28 16:23:00,
2013-03-28 12:28:00,54.4,27.3,30.30,East,101,2.0,8.0,35,0.00,,,0.00,888,Wunderground v.1.15,2013-03-28 16:28:00,
2013-03-28 12:33:00,54.7,26.8,30.30,East,94,3.0,8.0,34,0.00,,,0.00,896,Wunderground v.1.15,2013-03-28 16:33:00,
2013-03-28 12:38:00,54.6,26.8,30.29,East,92,5.0,8.0,34,0.00,,,0.00,900,Wunderground v.1.15,2013-03-28 16:38:00,
2013-03-28 12:43:00,54.5,27.4,30.29,ESE,115,2.0,7.0,35,0.00,,,0.00,905,Wunderground v.1.15,2013-03-28 16:43:00,
2013-03-28 12:48:00,55.0,27.8,30.29,NE,46,3.0,7.0,35,0.00,,,0.00,905,Wunderground v.1.15,2013-03-28 16:48:00,
2013-03-28 12:53:00,55.4,27.5,30.29,East,84,3.0,6.0,34,0.00,,,0.00,914,Wunderground v.1.15,2013-03-28 16:53:00,
2013-03-28 12:58:00,55.4,27.5,30.29,ENE,74,1.0,8.0,34,0.00,,,0.00,921,Wunderground v.1.15,2013-03-28 16:58:00,
2013-03-28 13:03:00,55.4,27.5,30.29,ESE,103,5.0,5.0,34,0.00,,,0.00,919,Wunderground v.1.15,2013-03-28 17:03:00,
2013-03-28 13:08:00,55.2,27.3,30.28,ESE,111,1.0,7.0,34,0.00,,,0.00,919,Wunderground v.1.15,2013-03-28 17:08:00,
2013-03-28 13:13:00,55.6,28.4,30.28,ESE,119,4.0,7.0,35,0.00,,,0.00,919,Wunderground v.1.15,2013-03-28 17:13:00,
2013-03-28 13:18:00,55.9,27.9,30.28,East,99,3.0,7.0,34,0.00,,,0.00,923,Wunderground v.1.15,2013-03-28 17:18:00,
2013-03-28 13:23:00,55.7,27.7,30.28,SE,126,2.0,7.0,34,0.00,,,0.00,926,Wunderground v.1.15,2013-03-28 17:23:00,
2013-03-28 13:29:00,56.2,28.2,30.27,SE,131,2.0,7.0,34,0.00,,,0.00,925,Wunderground v.1.15,2013-03-28 17:29:00,
2013-03-28 13:34:00,56.6,27.8,30.27,NNE,28,2.0,7.0,33,0.00,,,0.00,928,Wunderground v.1.15,2013-03-28 17:34:00,
2013-03-28 13:39:00,56.8,28.0,30.27,NNE,15,2.0,7.0,33,0.00,,,0.00,926,Wunderground v.1.15,2013-03-28 17:39:00,
2013-03-28 13:44:00,57.3,26.9,30.27,East,99,5.0,7.0,31,0.00,,,0.00,921,Wunderground v.1.15,2013-03-28 17:44:00,
2013-03-28 13:49:00,57.6,26.4,30.27,ENE,70,3.0,7.0,30,0.00,,,0.00,923,Wunderground v.1.15,2013-03-28 17:49:00,
2013-03-28 13:54:00,57.5,27.1,30.26,ESE,113,1.0,8.0,31,0.00,,,0.00,923,Wunderground v.1.15,2013-03-28 17:54:00,
2013-03-28 13:59:00,58.0,27.5,30.26,NE,56,1.0,8.0,31,0.00,,,0.00,918,Wunderground v.1.15,2013-03-28 17:59:00,
2013-03-28 14:04:00,58.1,27.6,30.26,ESE,112,3.0,4.0,31,0.00,,,0.00,914,Wunderground v.1.15,2013-03-28 18:04:00,
2013-03-28 14:09:00,57.8,26.5,30.26,ENE,64,3.0,10.0,30,0.00,,,0.00,911,Wunderground v.1.15,2013-03-28 18:09:00,
2013-03-28 14:14:00,57.6,26.4,30.26,East,92,3.0,5.0,30,0.00,,,0.00,907,Wunderground v.1.15,2013-03-28 18:14:00,
2013-03-28 14:19:00,58.4,27.9,30.25,ESE,102,4.0,7.0,31,0.00,,,0.00,905,Wunderground v.1.15,2013-03-28 18:19:00,
2013-03-28 14:24:00,58.6,25.6,30.25,NE,40,4.0,6.0,28,0.00,,,0.00,898,Wunderground v.1.15,2013-03-28 18:24:00,
2013-03-28 14:30:00,58.6,26.4,30.25,ENE,78,4.0,4.0,29,0.00,,,0.00,896,Wunderground v.1.15,2013-03-28 18:30:00,
2013-03-28 14:35:00,58.3,27.0,30.25,NNE,33,3.0,7.0,30,0.00,,,0.00,891,Wunderground v.1.15,2013-03-28 18:35:00,
2013-03-28 14:40:00,58.6,26.4,30.25,NNE,32,6.0,6.0,29,0.00,,,0.00,884,Wunderground v.1.15,2013-03-28 18:40:00,
2013-03-28 14:45:00,58.7,26.5,30.25,ENE,76,5.0,10.0,29,0.00,,,0.00,874,Wunderground v.1.15,2013-03-28 18:45:00,
2013-03-28 14:50:00,58.4,26.2,30.24,East,81,2.0,4.0,29,0.00,,,0.00,868,Wunderground v.1.15,2013-03-28 18:50:00,
2013-03-28 14:55:00,58.3,27.0,30.24,East,81,1.0,6.0,30,0.00,,,0.00,861,Wunderground v.1.15,2013-03-28 18:55:00,
2013-03-28 15:02:00,59.1,26.0,30.24,ESE,104,7.0,7.0,28,0.00,,,0.00,846,Wunderground v.1.15,2013-03-28 19:02:00,
2013-03-28 15:07:00,58.9,25.8,30.24,East,90,2.0,7.0,28,0.00,,,0.00,840,Wunderground v.1.15,2013-03-28 19:07:00,
2013-03-28 15:12:00,59.3,26.2,30.24,NNE,30,2.0,5.0,28,0.00,,,0.00,828,Wunderground v.1.15,2013-03-28 19:12:00,
2013-03-28 15:17:00,59.0,25.9,30.24,ENE,57,2.0,7.0,28,0.00,,,0.00,819,Wunderground v.1.15,2013-03-28 19:17:00,
2013-03-28 15:22:00,58.9,27.5,30.23,East,84,3.0,5.0,30,0.00,,,0.00,810,Wunderground v.1.15,2013-03-28 19:22:00,
2013-03-28 15:27:00,59.6,26.4,30.23,NNW,346,3.0,8.0,28,0.00,,,0.00,800,Wunderground v.1.15,2013-03-28 19:27:00,
2013-03-28 15:32:00,59.8,26.6,30.23,NNE,27,4.0,4.0,28,0.00,,,0.00,786,Wunderground v.1.15,2013-03-28 19:32:00,
2013-03-28 15:37:00,59.7,26.5,30.23,NNE,29,3.0,8.0,28,0.00,,,0.00,777,Wunderground v.1.15,2013-03-28 19:37:00,
2013-03-28 15:42:00,60.0,25.9,30.22,East,87,1.0,4.0,27,0.00,,,0.00,765,Wunderground v.1.15,2013-03-28 19:42:00,
2013-03-28 15:47:00,60.1,26.0,30.22,ENE,74,2.0,9.0,27,0.00,,,0.00,747,Wunderground v.1.15,2013-03-28 19:47:00,
2013-03-28 15:52:00,60.0,25.9,30.22,ENE,78,2.0,4.0,27,0.00,,,0.00,738,Wunderground v.1.15,2013-03-28 19:52:00,
2013-03-28 15:57:00,60.4,27.1,30.22,East,95,6.0,8.0,28,0.00,,,0.00,721,Wunderground v.1.15,2013-03-28 19:57:00,
2013-03-28 16:02:00,60.4,27.1,30.21,ESE,108,3.0,4.0,28,0.00,,,0.00,708,Wunderground v.1.15,2013-03-28 20:02:00,
2013-03-28 16:07:00,60.3,27.0,30.21,East,101,5.0,7.0,28,0.00,,,0.00,693,Wunderground v.1.15,2013-03-28 20:07:00,
2013-03-28 16:12:00,60.5,26.3,30.21,North,10,3.0,7.0,27,0.00,,,0.00,686,Wunderground v.1.15,2013-03-28 20:12:00,
2013-03-28 16:17:00,60.8,27.5,30.21,NNE,33,2.0,7.0,28,0.00,,,0.00,666,Wunderground v.1.15,2013-03-28 20:17:00,
2013-03-28 16:22:00,61.1,25.9,30.21,East,90,0.0,5.0,26,0.00,,,0.00,654,Wunderground v.1.15,2013-03-28 20:22:00,
2013-03-28 16:27:00,61.1,26.8,30.21,ENE,58,5.0,6.0,27,0.00,,,0.00,636,Wunderground v.1.15,2013-03-28 20:27:00,
2013-03-28 16:33:00,60.7,26.5,30.20,ENE,73,5.0,6.0,27,0.00,,,0.00,622,Wunderground v.1.15,2013-03-28 20:33:00,
2013-03-28 16:38:00,60.8,26.6,30.20,NNE,31,7.0,8.0,27,0.00,,,0.00,608,Wunderground v.1.15,2013-03-28 20:38:00,
2013-03-28 16:43:00,60.4,26.2,30.20,East,98,2.0,6.0,27,0.00,,,0.00,589,Wunderground v.1.15,2013-03-28 20:43:00,
2013-03-28 16:48:00,60.2,26.1,30.20,SE,126,3.0,6.0,27,0.00,,,0.00,573,Wunderground v.1.15,2013-03-28 20:48:00,
2013-03-28 16:53:00,60.6,27.3,30.20,ESE,109,3.0,5.0,28,0.00,,,0.00,554,Wunderground v.1.15,2013-03-28 20:53:00,
2013-03-28 16:58:00,60.7,26.5,30.20,South,172,2.0,8.0,27,0.00,,,0.00,445,Wunderground v.1.15,2013-03-28 20:58:00,
2013-03-28 17:03:00,60.7,25.6,30.20,ENE,78,4.0,5.0,26,0.00,,,0.00,387,Wunderground v.1.15,2013-03-28 21:03:00,
2013-03-28 17:08:00,60.8,27.5,30.20,ESE,121,4.0,8.0,28,0.00,,,0.00,251,Wunderground v.1.15,2013-03-28 21:08:00,
2013-03-28 17:13:00,60.6,26.4,30.19,East,80,2.0,7.0,27,0.00,,,0.00,142,Wunderground v.1.15,2013-03-28 21:13:00,
2013-03-28 17:18:00,60.7,26.5,30.19,ESE,104,8.0,8.0,27,0.00,,,0.00,102,Wunderground v.1.15,2013-03-28 21:18:00,
2013-03-28 17:23:00,60.8,25.7,30.19,ESE,116,3.0,7.0,26,0.00,,,0.00,264,Wunderground v.1.15,2013-03-28 21:23:00,
2013-03-28 17:28:00,60.8,26.6,30.19,East,86,3.0,7.0,27,0.00,,,0.00,167,Wunderground v.1.15,2013-03-28 21:28:00,
2013-03-28 17:33:00,60.8,26.6,30.19,East,92,2.0,6.0,27,0.00,,,0.00,69,Wunderground v.1.15,2013-03-28 21:33:00,
2013-03-28 17:38:00,60.9,26.7,30.20,ESE,111,5.0,6.0,27,0.00,,,0.00,95,Wunderground v.1.15,2013-03-28 21:38:00,
2013-03-28 17:43:00,60.7,26.5,30.20,ENE,67,2.0,5.0,27,0.00,,,0.00,100,Wunderground v.1.15,2013-03-28 21:43:00,
2013-03-28 17:48:00,60.5,26.3,30.20,ENE,77,2.0,5.0,27,0.00,,,0.00,109,Wunderground v.1.15,2013-03-28 21:48:00,
2013-03-28 17:53:00,60.4,27.1,30.20,SE,129,3.0,9.0,28,0.00,,,0.00,81,Wunderground v.1.15,2013-03-28 21:53:00,
2013-03-28 17:58:00,60.5,26.3,30.20,ESE,121,2.0,9.0,27,0.00,,,0.00,49,Wunderground v.1.15,2013-03-28 21:58:00,
2013-03-28 18:03:00,60.5,26.3,30.20,East,99,2.0,7.0,27,0.00,,,0.00,49,Wunderground v.1.15,2013-03-28 22:03:00,
2013-03-28 18:08:00,60.3,26.1,30.20,East,96,2.0,7.0,27,0.00,,,0.00,51,Wunderground v.1.15,2013-03-28 22:08:00,
2013-03-28 18:13:00,60.2,26.9,30.20,ESE,110,2.0,4.0,28,0.00,,,0.00,79,Wunderground v.1.15,2013-03-28 22:13:00,
2013-03-28 18:18:00,60.3,27.0,30.20,NE,53,3.0,5.0,28,0.00,,,0.00,54,Wunderground v.1.15,2013-03-28 22:18:00,
2013-03-28 18:23:00,60.3,26.1,30.20,East,82,3.0,6.0,27,0.00,,,0.00,49,Wunderground v.1.15,2013-03-28 22:23:00,
2013-03-28 18:28:00,60.1,26.9,30.20,ENE,76,3.0,6.0,28,0.00,,,0.00,40,Wunderground v.1.15,2013-03-28 22:28:00,
2013-03-28 18:33:00,59.9,26.7,30.20,ESE,103,1.0,6.0,28,0.00,,,0.00,39,Wunderground v.1.15,2013-03-28 22:33:00,
2013-03-28 18:38:00,60.0,27.6,30.20,East,82,1.0,6.0,29,0.00,,,0.00,37,Wunderground v.1.15,2013-03-28 22:38:00,
2013-03-28 18:43:00,59.9,26.7,30.21,East,100,2.0,4.0,28,0.00,,,0.00,35,Wunderground v.1.15,2013-03-28 22:43:00,
2013-03-28 18:48:00,59.8,27.4,30.21,East,82,3.0,5.0,29,0.00,,,0.00,39,Wunderground v.1.15,2013-03-28 22:48:00,
2013-03-28 18:53:00,59.7,27.4,30.22,East,80,1.0,4.0,29,0.00,,,0.00,32,Wunderground v.1.15,2013-03-28 22:53:00,
2013-03-28 18:58:00,59.7,27.4,30.22,SE,125,1.0,4.0,29,0.00,,,0.00,30,Wunderground v.1.15,2013-03-28 22:58:00,
2013-03-28 19:03:00,59.6,27.3,30.23,ESE,115,2.0,4.0,29,0.00,,,0.00,35,Wunderground v.1.15,2013-03-28 23:03:00,
2013-03-28 19:08:00,59.3,28.6,30.22,SE,133,3.0,7.0,31,0.00,,,0.00,23,Wunderground v.1.15,2013-03-28 23:08:00,
2013-03-28 19:13:00,58.7,28.9,30.23,South,171,3.0,5.0,32,0.00,,,0.00,21,Wunderground v.1.15,2013-03-28 23:13:00,
2013-03-28 19:18:00,58.3,28.5,30.23,SSE,148,1.0,5.0,32,0.00,,,0.00,16,Wunderground v.1.15,2013-03-28 23:18:00,
2013-03-28 19:23:00,57.9,28.2,30.23,SE,140,1.0,5.0,32,0.00,,,0.00,12,Wunderground v.1.15,2013-03-28 23:23:00,
2013-03-28 19:28:00,57.7,28.8,30.24,SSE,167,0.0,5.0,33,0.00,,,0.00,9,Wunderground v.1.15,2013-03-28 23:28:00,
2013-03-28 19:34:00,57.3,28.4,30.24,ESE,117,1.0,3.0,33,0.00,,,0.00,5,Wunderground v.1.15,2013-03-28 23:34:00,
2013-03-28 19:39:00,57.1,29.0,30.24,ESE,119,0.0,3.0,34,0.00,,,0.00,0,Wunderground v.1.15,2013-03-28 23:39:00,
2013-03-28 19:44:00,56.9,28.8,30.24,ESE,120,2.0,2.0,34,0.00,,,0.00,0,Wunderground v.1.15,2013-03-28 23:44:00,
2013-03-28 19:49:00,56.6,29.2,30.25,SSE,167,1.0,4.0,35,0.00,,,0.00,0,Wunderground v.1.15,2013-03-28 23:49:00,
2013-03-28 19:54:00,56.4,29.1,30.25,SSE,167,0.0,2.0,35,0.00,,,0.00,0,Wunderground v.1.15,2013-03-28 23:54:00,
2013-03-28 19:59:00,56.1,29.5,30.25,SSE,167,1.0,3.0,36,0.00,,,0.00,0,Wunderground v.1.15,2013-03-28 23:59:00,
2013-03-28 20:04:00,55.8,29.9,30.25,SSE,167,1.0,2.0,37,0.00,,,0.00,0,Wunderground v.1.15,2013-03-29 00:04:00,
2013-03-28 20:09:00,55.5,29.6,30.26,SSE,167,1.0,2.0,37,0.00,,,0.00,0,Wunderground v.1.15,2013-03-29 00:09:00,
2013-03-28 20:14:00,55.3,29.4,30.26,SSE,167,0.0,2.0,37,0.00,,,0.00,0,Wunderground v.1.15,2013-03-29 00:14:00,
2013-03-28 20:19:00,55.0,29.8,30.26,SSE,160,1.0,3.0,38,0.00,,,0.00,0,Wunderground v.1.15,2013-03-29 00:19:00,
2013-03-28 20:24:00,54.8,30.3,30.26,SSE,160,0.0,1.0,39,0.00,,,0.00,0,Wunderground v.1.15,2013-03-29 00:24:00,
2013-03-28 20:29:00,54.3,31.1,30.26,SSE,160,0.0,1.0,41,0.00,,,0.00,0,Wunderground v.1.15,2013-03-29 00:29:00,
2013-03-28 20:34:00,53.6,31.0,30.26,SSE,160,0.0,0.0,42,0.00,,,0.00,0,Wunderground v.1.15,2013-03-29 00:34:00,
2013-03-28 20:39:00,53.0,31.6,30.26,SSE,160,0.0,1.0,44,0.00,,,0.00,0,Wunderground v.1.15,2013-03-29 00:39:00,
2013-03-28 20:44:00,52.5,31.8,30.27,SSE,160,0.0,0.0,45,0.00,,,0.00,0,Wunderground v.1.15,2013-03-29 00:44:00,
2013-03-28 20:49:00,52.0,31.8,30.27,SSE,160,0.0,0.0,46,0.00,,,0.00,0,Wunderground v.1.15,2013-03-29 00:49:00,
2013-03-28 20:54:00,51.6,32.0,30.27,SSE,160,0.0,0.0,47,0.00,,,0.00,0,Wunderground v.1.15,2013-03-29 00:54:00,
2013-03-28 20:59:00,51.2,32.2,30.27,SSE,160,0.0,1.0,48,0.00,,,0.00,0,Wunderground v.1.15,2013-03-29 00:59:00,
2013-03-28 21:04:00,50.8,31.8,30.27,SSE,160,0.0,0.0,48,0.00,,,0.00,0,Wunderground v.1.15,2013-03-29 01:04:00,
2013-03-28 21:09:00,50.4,31.9,30.27,SSE,160,0.0,0.0,49,0.00,,,0.00,0,Wunderground v.1.15,2013-03-29 01:09:00,
2013-03-28 21:14:00,50.1,32.2,30.27,SSE,160,0.0,0.0,50,0.00,,,0.00,0,Wunderground v.1.15,2013-03-29 01:14:00,
2013-03-28 21:19:00,49.9,32.5,30.28,SSE,160,0.0,0.0,51,0.00,,,0.00,0,Wunderground v.1.15,2013-03-29 01:19:00,
2013-03-28 21:24:00,49.5,32.6,30.28,SSE,160,0.0,0.0,52,0.00,,,0.00,0,Wunderground v.1.15,2013-03-29 01:24:00,
2013-03-28 21:29:00,49.2,32.3,30.28,SSE,160,0.0,0.0,52,0.00,,,0.00,0,Wunderground v.1.15,2013-03-29 01:29:00,
2013-03-28 21:34:00,48.9,32.5,30.28,SSE,160,0.0,0.0,53,0.00,,,0.00,0,Wunderground v.1.15,2013-03-29 01:34:00,
2013-03-28 21:40:00,48.5,33.1,30.28,SSE,160,0.0,0.0,55,0.00,,,0.00,0,Wunderground v.1.15,2013-03-29 01:40:00,
2013-03-28 21:45:00,48.3,32.9,30.28,SSE,160,0.0,0.0,55,0.00,,,0.00,0,Wunderground v.1.15,2013-03-29 01:45:00,
2013-03-28 21:50:00,48.0,32.6,30.28,SSE,160,0.0,0.0,55,0.00,,,0.00,0,Wunderground v.1.15,2013-03-29 01:50:00,
2013-03-28 21:55:00,47.8,32.9,30.29,SSE,160,0.0,0.0,56,0.00,,,0.00,0,Wunderground v.1.15,2013-03-29 01:55:00,
2013-03-28 22:02:00,47.5,33.0,30.29,SSE,160,0.0,0.0,57,0.00,,,0.00,0,Wunderground v.1.15,2013-03-29 02:02:00,
2013-03-28 22:07:00,47.1,33.1,30.29,SSE,160,0.0,0.0,58,0.00,,,0.00,0,Wunderground v.1.15,2013-03-29 02:07:00,
2013-03-28 22:12:00,46.7,32.7,30.29,SSE,160,0.0,0.0,58,0.00,,,0.00,0,Wunderground v.1.15,2013-03-29 02:12:00,
2013-03-28 22:17:00,46.4,33.7,30.29,SSE,160,0.0,0.0,61,0.00,,,0.00,0,Wunderground v.1.15,2013-03-29 02:17:00,
2013-03-28 22:22:00,46.3,34.0,30.30,SSE,160,0.0,0.0,62,0.00,,,0.00,0,Wunderground v.1.15,2013-03-29 02:22:00,
2013-03-28 22:27:00,46.3,34.0,30.30,SSE,160,0.0,0.0,62,0.00,,,0.00,0,Wunderground v.1.15,2013-03-29 02:27:00,
2013-03-28 22:32:00,46.2,34.3,30.30,SSE,160,0.0,0.0,63,0.00,,,0.00,0,Wunderground v.1.15,2013-03-29 02:32:00,
2013-03-28 22:37:00,46.0,35.3,30.30,SSE,160,0.0,0.0,66,0.00,,,0.00,0,Wunderground v.1.15,2013-03-29 02:37:00,
2013-03-28 22:42:00,45.8,35.1,30.30,SSE,160,0.0,0.0,66,0.00,,,0.00,0,Wunderground v.1.15,2013-03-29 02:42:00,
2013-03-28 22:47:00,45.5,35.2,30.30,SSE,160,0.0,0.0,67,0.00,,,0.00,0,Wunderground v.1.15,2013-03-29 02:47:00,
2013-03-28 22:52:00,45.7,36.5,30.30,SSE,160,0.0,0.0,70,0.00,,,0.00,0,Wunderground v.1.15,2013-03-29 02:52:00,
2013-03-28 22:57:00,46.1,37.9,30.30,SSE,160,0.0,1.0,73,0.00,,,0.00,0,Wunderground v.1.15,2013-03-29 02:57:00,
2013-03-28 23:03:00,46.2,36.6,30.30,SSE,160,0.0,0.0,69,0.00,,,0.00,0,Wunderground v.1.15,2013-03-29 03:03:00,
2013-03-28 23:08:00,46.1,36.9,30.30,SSE,160,0.0,0.0,70,0.00,,,0.00,0,Wunderground v.1.15,2013-03-29 03:08:00,
2013-03-28 23:13:00,45.9,36.7,30.30,SSE,160,0.0,0.0,70,0.00,,,0.00,0,Wunderground v.1.15,2013-03-29 03:13:00,
2013-03-28 23:18:00,45.5,36.6,30.30,SSE,160,0.0,0.0,71,0.00,,,0.00,0,Wunderground v.1.15,2013-03-29 03:18:00,
2013-03-28 23:23:00,45.4,37.2,30.30,SSE,160,0.0,0.0,73,0.00,,,0.00,0,Wunderground v.1.15,2013-03-29 03:23:00,
2013-03-28 23:28:00,45.2,37.4,30.30,SSE,160,0.0,0.0,74,0.00,,,0.00,0,Wunderground v.1.15,2013-03-29 03:28:00,
2013-03-28 23:33:00,45.1,37.3,30.30,SSE,160,0.0,0.0,74,0.00,,,0.00,0,Wunderground v.1.15,2013-03-29 03:33:00,
2013-03-28 23:38:00,45.0,37.6,30.30,SSE,160,0.0,0.0,75,0.00,,,0.00,0,Wunderground v.1.15,2013-03-29 03:38:00,
2013-03-28 23:43:00,44.9,37.8,30.30,SSE,160,0.0,0.0,76,0.00,,,0.00,0,Wunderground v.1.15,2013-03-29 03:43:00,
2013-03-28 23:48:00,44.7,37.6,30.30,SSE,160,0.0,0.0,76,0.00,,,0.00,0,Wunderground v.1.15,2013-03-29 03:48:00,
2013-03-28 23:53:00,44.5,37.4,30.30,SSE,160,0.0,0.0,76,0.00,,,0.00,0,Wunderground v.1.15,2013-03-29 03:53:00,
2013-03-28 23:58:00,44.4,37.6,30.30,SSE,160,0.0,0.0,77,0.00,,,0.00,0,Wunderground v.1.15,2013-03-29 03:58:00,